Avalon Airport, Australia

1:13 AM AEDT on February 23, 2017 (GMT +1100)
Avalon

Weather History for YMAV - January, 2014

Change the Weather History Date:

Sunday, January 19, 2014

  Actual Average Record
Temperature  
Mean Temperature 64 °F -  
Max Temperature 69 °F - - ()
Min Temperature 58 °F - - ()
Degree Days  
Heating Degree Days 2    
Growing Degree Days 14 (Base 50)    
Moisture  
Dew Point 52 °F    
Average Humidity 63    
Maximum Humidity 88    
Minimum Humidity 46    
Precipitation  
Precipitation 0.00 in - - ()
Sea Level Pressure  
Sea Level Pressure 29.95 in    
Wind  
Wind Speed 14 mph ()    
Max Wind Speed 18 mph    
Max Gust Speed -    
Visibility 6.2 miles    
Events      
T = Trace of Precipitation, MM = Missing Value Source: Averaged Metar Reports

Daily Weather History Graph

Daily Weather History Graph

Search for Another Location

Airport or City:

Trip Planner

Search our weather history database for the weather conditions in past years. The results will help you decide how hot, cold, wet, or windy it might be!

Date:

Astronomy

Jan. 19, 2014 Rise Set
Actual Time 6:20 AM AEDT 8:44 PM AEDT
Civil Twilight 5:49 AM AEDT 9:14 PM AEDT
Nautical Twilight 5:12 AM AEDT 9:52 PM AEDT
Astronomical Twilight 4:31 AM AEDT 10:32 PM AEDT
Moon 10:05 PM AEDT (1/19) 8:59 AM AEDT (1/19)
Length of Visible Light 15h 24m
Length of Day
14h 24m
Waning Gibbous, 93% of the Moon is Illuminated
Jan 19
Waning Gibbous
Jan 24
Last Quarter
Jan 31
New
Feb 7
First Quarter
Feb 15
Full

Hourly Weather History & Observations

Time (AEDT) Temp. Dew Point Humidity Pressure Visibility Wind Dir Wind Speed Gust Speed Precip Events Conditions
12:00 AM 63 °F 52 °F 57% 30.01 in - South 16.1 mph - -  
12:00 AM 62.6 °F 51.8 °F 68% 30.01 in 6.2 mi South 16.1 mph - N/A   Overcast
12:30 AM 62.6 °F 50.0 °F 63% 30.01 in 6.2 mi South 16.1 mph - N/A   Overcast
1:00 AM 62.6 °F 50.0 °F 63% 29.98 in 6.2 mi South 15.0 mph - N/A   Overcast
1:30 AM 62.6 °F 50.0 °F 63% 29.98 in 6.2 mi South 16.1 mph - N/A   Overcast
2:00 AM 62.6 °F 48.2 °F 59% 29.98 in 6.2 mi South 12.7 mph - N/A   Overcast
2:30 AM 60.8 °F 50.0 °F 68% 29.98 in 6.2 mi South 15.0 mph - N/A   Overcast
3:00 AM 61 °F 48 °F 53% 29.97 in - South 13.8 mph - -   Overcast
3:00 AM 60.8 °F 48.2 °F 63% 29.95 in 6.2 mi South 13.8 mph - N/A   Overcast
3:30 AM 60.8 °F 48.2 °F 63% 29.95 in 6.2 mi South 12.7 mph - N/A   Overcast
4:00 AM 60.8 °F 48.2 °F 63% 29.95 in 6.2 mi South 11.5 mph - N/A   Overcast
4:30 AM 60.8 °F 48.2 °F 63% 29.95 in 6.2 mi South 12.7 mph - N/A   Overcast
5:00 AM 60.8 °F 46.4 °F 59% 29.95 in 6.2 mi South 15.0 mph - N/A   Overcast
5:30 AM 59.0 °F 48.2 °F 67% 29.95 in 6.2 mi South 12.7 mph - N/A   Overcast
6:00 AM 59 °F 48 °F 57% 29.98 in - South 15.0 mph - -  
6:00 AM 59.0 °F 48.2 °F 67% 29.98 in 6.2 mi South 15.0 mph - N/A   Overcast
6:30 AM 59.0 °F 48.2 °F 67% 29.98 in 6.2 mi South 12.7 mph - N/A   Overcast
7:00 AM 60.8 °F 48.2 °F 63% 29.98 in 6.2 mi SSW 12.7 mph - N/A   Overcast
7:30 AM 60.8 °F 46.4 °F 59% 29.98 in 6.2 mi South 15.0 mph - N/A   Overcast
8:00 AM 60.8 °F 48.2 °F 63% 29.98 in 6.2 mi SSW 11.5 mph - N/A   Overcast
8:30 AM 62.6 °F 48.2 °F 59% 29.98 in 6.2 mi South 12.7 mph - N/A   Overcast
9:00 AM 63 °F 50 °F 52% 29.99 in - SSW 13.8 mph - -   Overcast
9:00 AM 62.6 °F 50.0 °F 63% 29.98 in 6.2 mi South 13.8 mph - N/A   Overcast
9:30 AM 64.4 °F 48.2 °F 56% 29.98 in 6.2 mi South 17.3 mph - N/A   Overcast
10:00 AM 64.4 °F 50.0 °F 59% 29.98 in 6.2 mi SSW 13.8 mph - N/A   Mostly Cloudy
10:30 AM 66.2 °F 50.0 °F 56% 29.98 in 6.2 mi South 17.3 mph - N/A   Overcast
11:00 AM 66.2 °F 50.0 °F 56% 29.98 in 6.2 mi SSW 17.3 mph - N/A   Overcast
11:30 AM 68.0 °F 50.0 °F 52% 29.95 in 6.2 mi South 17.3 mph - N/A   Mostly Cloudy
12:00 PM 68 °F 52 °F 46% 29.98 in - South 17.3 mph - -  
12:00 PM 68.0 °F 51.8 °F 56% 29.98 in 6.2 mi South 17.3 mph - N/A   Overcast
12:30 PM 66.2 °F 50.0 °F 56% 29.95 in 6.2 mi South 18.4 mph - N/A   Overcast
1:00 PM 69.8 °F 51.8 °F 53% 29.95 in 6.2 mi SSW 18.4 mph - N/A   Overcast
1:30 PM 68.0 °F 51.8 °F 56% 29.95 in 6.2 mi South 18.4 mph - N/A   Overcast
2:00 PM 68.0 °F 51.8 °F 56% 29.95 in 6.2 mi South 17.3 mph - N/A   Overcast
2:30 PM 68.0 °F 51.8 °F 56% 29.95 in 6.2 mi South 17.3 mph - N/A   Overcast
3:00 PM 69 °F 53 °F 46% 29.94 in - South 17.3 mph - -  
3:00 PM 68.0 °F 53.6 °F 60% 29.92 in 6.2 mi South 17.3 mph - N/A   Overcast
3:30 PM 68.0 °F 51.8 °F 56% 29.92 in 6.2 mi South 17.3 mph - N/A   Overcast
4:00 PM 68.0 °F 53.6 °F 60% 29.92 in 6.2 mi South 17.3 mph - N/A   Overcast
4:30 PM 69.8 °F 53.6 °F 56% 29.92 in 6.2 mi SSW 18.4 mph - N/A   Overcast
5:00 PM 68.0 °F 53.6 °F 60% 29.92 in 6.2 mi South 17.3 mph - N/A   Overcast
5:30 PM 68.0 °F 55.4 °F 64% 29.92 in 6.2 mi South 18.4 mph - N/A   Overcast
6:00 PM 66 °F 53 °F 54% 29.91 in - South 18.4 mph - -   Overcast
6:00 PM 66.2 °F 53.6 °F 64% 29.89 in 6.2 mi South 18.4 mph - N/A   Overcast
6:30 PM 66.2 °F 55.4 °F 68% 29.89 in 6.2 mi South 18.4 mph - N/A   Overcast
7:00 PM 66.2 °F 55.4 °F 68% 29.89 in 6.2 mi SSW 16.1 mph - N/A   Mostly Cloudy
7:30 PM 64.4 °F 55.4 °F 73% 29.92 in 6.2 mi SSW 18.4 mph - N/A   Mostly Cloudy
8:00 PM 64.4 °F 55.4 °F 73% 29.92 in 6.2 mi SSW 17.3 mph - N/A   Mostly Cloudy
8:30 PM 64.4 °F 57.2 °F 77% 29.92 in 6.2 mi SSW 15.0 mph - N/A   Mostly Cloudy
9:00 PM 64 °F 58 °F 73% 29.92 in - SSW 16.1 mph - -   Overcast
9:00 PM 64.4 °F 57.2 °F 77% 29.92 in 6.2 mi SSW 16.1 mph - N/A   Mostly Cloudy
9:06 PM 62.6 °F 57.2 °F 82% 29.92 in 6.2 mi SSW 13.8 mph - N/A   Mostly Cloudy
9:30 PM 62.6 °F 59.0 °F 88% 29.92 in 6.2 mi SSW 13.8 mph - N/A   Mostly Cloudy
10:00 PM 64.4 °F 59.0 °F 83% 29.92 in 6.2 mi SSW 13.8 mph - N/A   Overcast
10:30 PM 64.4 °F 57.2 °F 77% 29.92 in 6.2 mi South 13.8 mph - N/A   Overcast
11:00 PM 64.4 °F 57.2 °F 77% 29.92 in 6.2 mi SSW 13.8 mph - N/A   Overcast
11:30 PM 64.4 °F 59.0 °F 83% 29.92 in 6.2 mi SSW 15.0 mph - N/A   Overcast
11:54 PM 64.4 °F 59.0 °F 83% 29.89 in 6.2 mi SSW 13.8 mph - N/A   Overcast